Simultaneous Nadir Overpasses (SNOs) Predictions

Prediction of SNOs between FY3D and AQUA Satellite Orbit:

Table of predicted SNOs for the next 14.0 days since TLE Epoch: 7/21/2023
Index Date (FY3D) Time (FY3D) Lat,Lon (FY3D) SZA (FY3D ) Date (AQUA) Time (AQUA) Lat,Lon (AQUA) SZA (AQUA ) Distance(km) Time Diff (sec)
1 07/22/2023 21:30:03 78.72,-161.42 59.26 07/22/2023 21:30:48 78.73,-161.55 59.26 2.99 45
2 07/22/2023 22:20:39 -78.40, 7.93 121.19 07/22/2023 22:20:04 -78.40, 7.89 121.17 1.03 35
3 07/25/2023 11:15:39 -78.73, 172.20 120.21 07/25/2023 11:16:13 -78.73, 172.17 120.22 0.82 34
4 07/25/2023 12:06:16 78.36, -18.24 59.30 07/25/2023 12:05:29 78.37, -18.25 59.32 0.42 47
5 07/28/2023 01:01:17 78.74, 145.76 60.38 07/28/2023 01:01:38 78.73, 145.80 60.37 0.94 21
6 07/28/2023 01:51:49 -78.26, -43.98 120.28 07/28/2023 01:50:51 -78.27, -44.08 120.24 2.51 58
7 07/30/2023 14:46:51 -78.67, 119.81 119.11 07/30/2023 14:47:00 -78.67, 119.84 119.12 0.89 9
8 07/30/2023 15:37:27 78.27, -70.44 60.35 07/30/2023 15:36:15 78.27, -70.43 60.37 0.35 72
9 08/02/2023 03:43:10 -80.98,-101.23 113.88 08/02/2023 03:44:24 -81.36,-100.65 113.74 43.36 74
10 08/02/2023 04:32:25 78.59, 93.99 61.40 08/02/2023 04:32:20 78.59, 93.94 61.41 1.32 5
11 08/04/2023 17:27:24 78.89,-101.71 62.49 08/04/2023 17:28:25 78.90,-101.76 62.48 1.06 61



Historial Predications of SNOs between FY3D and AQUA
